Time,TemperatureF,DewpointF,PressureIn,WindDirection,WindDirectionDegrees,WindSpeedMPH,WindSpeedGustMPH,Humidity,HourlyPrecipIn,Conditions,Clouds,dailyrainin,SoftwareType,DateUTC
2013-06-19 00:02:00,88.6,41.1,29.59,NW,312,0.0,1.0,19,0.00,,,0.00,Wunderground v.1.15,2013-06-19 07:02:00,
2013-06-19 00:07:00,88.5,39.6,29.59,North,353,0.0,5.0,18,0.00,,,0.00,Wunderground v.1.15,2013-06-19 07:07:00,
2013-06-19 00:12:00,88.3,39.4,29.59,NNW,330,0.0,1.0,18,0.00,,,0.00,Wunderground v.1.15,2013-06-19 07:12:00,
2013-06-19 00:17:00,88.2,39.3,29.59,SE,129,1.0,4.0,18,0.00,,,0.00,Wunderground v.1.15,2013-06-19 07:17:00,
2013-06-19 00:22:00,88.1,39.3,29.59,SE,131,2.0,2.0,18,0.00,,,0.00,Wunderground v.1.15,2013-06-19 07:22:00,
2013-06-19 00:27:00,87.9,39.1,29.59,SW,234,1.0,2.0,18,0.00,,,0.00,Wunderground v.1.15,2013-06-19 07:27:00,
2013-06-19 00:32:00,87.8,39.0,29.59,NW,308,1.0,1.0,18,0.00,,,0.00,Wunderground v.1.15,2013-06-19 07:32:00,
2013-06-19 00:37:00,87.5,40.2,29.59,NW,321,0.0,1.0,19,0.00,,,0.00,Wunderground v.1.15,2013-06-19 07:37:00,
2013-06-19 00:42:00,87.2,39.9,29.59,ESE,118,0.0,1.0,19,0.00,,,0.00,Wunderground v.1.15,2013-06-19 07:42:00,
2013-06-19 00:47:00,86.9,39.7,29.59,West,273,0.0,1.0,19,0.00,,,0.00,Wunderground v.1.15,2013-06-19 07:47:00,
2013-06-19 00:52:00,86.5,40.7,29.58,NW,325,1.0,1.0,20,0.00,,,0.00,Wunderground v.1.15,2013-06-19 07:52:00,
2013-06-19 00:58:00,86.4,41.8,29.58,West,264,0.0,2.0,21,0.00,,,0.00,Wunderground v.1.15,2013-06-19 07:58:00,
2013-06-19 01:03:00,86.4,40.6,29.58,East,92,1.0,1.0,20,0.00,,,0.00,Wunderground v.1.15,2013-06-19 08:03:00,
2013-06-19 01:08:00,86.4,40.6,29.58,NW,321,0.0,1.0,20,0.00,,,0.00,Wunderground v.1.15,2013-06-19 08:08:00,
2013-06-19 01:13:00,86.4,40.6,29.58,WNW,298,1.0,1.0,20,0.00,,,0.00,Wunderground v.1.15,2013-06-19 08:13:00,
2013-06-19 01:18:00,86.5,40.7,29.58,WSW,248,0.0,1.0,20,0.00,,,0.00,Wunderground v.1.15,2013-06-19 08:18:00,
2013-06-19 01:23:00,86.3,40.5,29.58,North,354,0.0,3.0,20,0.00,,,0.00,Wunderground v.1.15,2013-06-19 08:23:00,
2013-06-19 01:28:00,86.1,42.8,29.59,NNW,347,2.0,3.0,22,0.00,,,0.00,Wunderground v.1.15,2013-06-19 08:28:00,
2013-06-19 01:33:00,83.2,46.7,29.59,ENE,75,0.0,2.0,28,0.00,,,0.00,Wunderground v.1.15,2013-06-19 08:33:00,
2013-06-19 01:38:00,80.7,46.4,29.59,NNE,24,0.0,2.0,30,0.00,,,0.00,Wunderground v.1.15,2013-06-19 08:38:00,
2013-06-19 01:43:00,79.6,46.3,29.59,NNE,20,0.0,0.0,31,0.00,,,0.00,Wunderground v.1.15,2013-06-19 08:43:00,
2013-06-19 01:48:00,79.0,44.9,29.60,NNE,19,6.0,6.0,30,0.00,,,0.00,Wunderground v.1.15,2013-06-19 08:48:00,
2013-06-19 01:53:00,77.8,47.9,29.60,North,357,0.0,1.0,35,0.00,,,0.00,Wunderground v.1.15,2013-06-19 08:53:00,
2013-06-19 01:58:00,77.4,47.6,29.60,East,94,0.0,3.0,35,0.00,,,0.00,Wunderground v.1.15,2013-06-19 08:58:00,
2013-06-19 02:03:00,77.7,46.3,29.59,ESE,103,0.0,1.0,33,0.00,,,0.00,Wunderground v.1.15,2013-06-19 09:03:00,
2013-06-19 02:08:00,78.3,45.2,29.59,SW,232,0.0,1.0,31,0.00,,,0.00,Wunderground v.1.15,2013-06-19 09:08:00,
2013-06-19 02:13:00,78.6,45.4,29.59,SSE,149,0.0,1.0,31,0.00,,,0.00,Wunderground v.1.15,2013-06-19 09:13:00,
2013-06-19 02:18:00,78.5,45.3,29.60,SSE,149,0.0,1.0,31,0.00,,,0.00,Wunderground v.1.15,2013-06-19 09:18:00,
2013-06-19 02:23:00,78.2,45.9,29.59,SSE,150,0.0,0.0,32,0.00,,,0.00,Wunderground v.1.15,2013-06-19 09:23:00,
2013-06-19 02:28:00,77.5,46.1,29.59,ESE,113,1.0,1.0,33,0.00,,,0.00,Wunderground v.1.15,2013-06-19 09:28:00,
2013-06-19 02:33:00,77.4,46.0,29.59,ENE,77,0.0,1.0,33,0.00,,,0.00,Wunderground v.1.15,2013-06-19 09:33:00,
2013-06-19 02:38:00,77.5,45.3,29.60,ENE,77,0.0,1.0,32,0.00,,,0.00,Wunderground v.1.15,2013-06-19 09:38:00,
2013-06-19 02:43:00,77.4,45.2,29.60,ENE,76,0.0,0.0,32,0.00,,,0.00,Wunderground v.1.15,2013-06-19 09:43:00,
2013-06-19 02:48:00,77.1,46.6,29.60,East,84,0.0,3.0,34,0.00,,,0.00,Wunderground v.1.15,2013-06-19 09:48:00,
2013-06-19 02:53:00,74.8,46.1,29.60,ESE,105,1.0,2.0,36,0.00,,,0.00,Wunderground v.1.15,2013-06-19 09:53:00,
2013-06-19 02:58:00,75.0,46.2,29.60,ENE,70,0.0,3.0,36,0.00,,,0.00,Wunderground v.1.15,2013-06-19 09:58:00,
2013-06-19 03:03:00,75.1,46.3,29.60,North,8,0.0,3.0,36,0.00,,,0.00,Wunderground v.1.15,2013-06-19 10:03:00,
2013-06-19 03:08:00,75.1,47.0,29.60,ENE,68,1.0,3.0,37,0.00,,,0.00,Wunderground v.1.15,2013-06-19 10:08:00,
2013-06-19 03:13:00,75.7,46.8,29.61,ENE,65,2.0,2.0,36,0.00,,,0.00,Wunderground v.1.15,2013-06-19 10:13:00,
2013-06-19 03:18:00,76.4,45.2,29.60,ESE,107,0.0,2.0,33,0.00,,,0.00,Wunderground v.1.15,2013-06-19 10:18:00,
2013-06-19 03:23:00,77.0,44.9,29.61,ESE,108,0.0,1.0,32,0.00,,,0.00,Wunderground v.1.15,2013-06-19 10:23:00,
2013-06-19 03:28:00,77.2,44.2,29.61,ESE,111,0.0,1.0,31,0.00,,,0.00,Wunderground v.1.15,2013-06-19 10:28:00,
2013-06-19 03:33:00,77.1,43.3,29.61,ESE,109,0.0,0.0,30,0.00,,,0.00,Wunderground v.1.15,2013-06-19 10:33:00,
2013-06-19 03:38:00,76.8,43.9,29.61,ESE,115,0.0,1.0,31,0.00,,,0.00,Wunderground v.1.15,2013-06-19 10:38:00,
2013-06-19 03:43:00,76.4,43.5,29.61,ESE,116,0.0,1.0,31,0.00,,,0.00,Wunderground v.1.15,2013-06-19 10:43:00,
2013-06-19 03:48:00,76.6,43.7,29.61,ESE,120,0.0,1.0,31,0.00,,,0.00,Wunderground v.1.15,2013-06-19 10:48:00,
2013-06-19 03:53:00,76.4,43.5,29.61,ESE,116,0.0,1.0,31,0.00,,,0.00,Wunderground v.1.15,2013-06-19 10:53:00,
2013-06-19 03:58:00,76.3,42.6,29.61,ESE,113,1.0,2.0,30,0.00,,,0.00,Wunderground v.1.15,2013-06-19 10:58:00,
2013-06-19 04:03:00,76.2,42.5,29.61,ESE,110,0.0,1.0,30,0.00,,,0.00,Wunderground v.1.15,2013-06-19 11:03:00,
2013-06-19 04:08:00,76.0,42.3,29.61,ESE,110,0.0,1.0,30,0.00,,,0.00,Wunderground v.1.15,2013-06-19 11:08:00,
2013-06-19 04:13:00,75.5,42.7,29.61,ESE,110,0.0,0.0,31,0.00,,,0.00,Wunderground v.1.15,2013-06-19 11:13:00,
2013-06-19 04:18:00,75.0,43.9,29.62,ESE,110,0.0,0.0,33,0.00,,,0.00,Wunderground v.1.15,2013-06-19 11:18:00,
2013-06-19 04:23:00,74.2,45.5,29.61,ESE,110,0.0,0.0,36,0.00,,,0.00,Wunderground v.1.15,2013-06-19 11:23:00,
2013-06-19 04:28:00,73.7,42.8,29.62,ESE,114,0.0,0.0,33,0.00,,,0.00,Wunderground v.1.15,2013-06-19 11:28:00,
2013-06-19 04:33:00,73.7,42.0,29.62,ESE,113,0.0,0.0,32,0.00,,,0.00,Wunderground v.1.15,2013-06-19 11:33:00,
2013-06-19 04:38:00,73.4,42.5,29.62,ESE,113,0.0,0.0,33,0.00,,,0.00,Wunderground v.1.15,2013-06-19 11:38:00,
2013-06-19 04:43:00,72.8,42.8,29.62,ESE,113,0.0,0.0,34,0.00,,,0.00,Wunderground v.1.15,2013-06-19 11:43:00,
2013-06-19 04:48:00,72.7,42.7,29.62,ESE,113,0.0,0.0,34,0.00,,,0.00,Wunderground v.1.15,2013-06-19 11:48:00,
2013-06-19 04:53:00,72.7,43.5,29.62,ESE,120,0.0,1.0,35,0.00,,,0.00,Wunderground v.1.15,2013-06-19 11:53:00,
2013-06-19 04:58:00,72.8,43.5,29.63,ESE,111,1.0,1.0,35,0.00,,,0.00,Wunderground v.1.15,2013-06-19 11:58:00,
2013-06-19 05:03:00,73.3,40.0,29.63,ESE,110,0.0,1.0,30,0.00,,,0.00,Wunderground v.1.15,2013-06-19 12:03:00,
2013-06-19 05:08:00,73.6,39.4,29.63,ESE,110,0.0,1.0,29,0.00,,,0.00,Wunderground v.1.15,2013-06-19 12:08:00,
2013-06-19 05:13:00,74.0,40.6,29.63,ESE,110,0.0,0.0,30,0.00,,,0.00,Wunderground v.1.15,2013-06-19 12:13:00,
2013-06-19 05:18:00,73.1,43.8,29.63,West,270,0.0,1.0,35,0.00,,,0.00,Wunderground v.1.15,2013-06-19 12:18:00,
2013-06-19 05:23:00,71.7,48.0,29.63,West,270,0.0,1.0,43,0.00,,,0.00,Wunderground v.1.15,2013-06-19 12:23:00,
2013-06-19 05:28:00,70.2,46.6,29.63,WNW,291,0.0,1.0,43,0.00,,,0.00,Wunderground v.1.15,2013-06-19 12:28:00,
2013-06-19 05:33:00,69.6,47.3,29.64,WNW,301,0.0,0.0,45,0.00,,,0.00,Wunderground v.1.15,2013-06-19 12:33:00,
2013-06-19 05:38:00,69.2,49.2,29.64,WNW,300,0.0,1.0,49,0.00,,,0.00,Wunderground v.1.15,2013-06-19 12:38:00,
2013-06-19 05:43:00,68.8,49.9,29.64,ENE,63,1.0,1.0,51,0.00,,,0.00,Wunderground v.1.15,2013-06-19 12:43:00,
2013-06-19 05:48:00,68.8,48.9,29.64,ENE,63,1.0,1.0,49,0.00,,,0.00,Wunderground v.1.15,2013-06-19 12:48:00,
2013-06-19 05:53:00,70.1,45.9,29.64,East,96,0.0,1.0,42,0.00,,,0.00,Wunderground v.1.15,2013-06-19 12:53:00,
2013-06-19 05:58:00,71.8,46.8,29.65,East,96,1.0,1.0,41,0.00,,,0.00,Wunderground v.1.15,2013-06-19 12:58:00,
2013-06-19 06:03:00,72.8,41.2,29.65,East,93,1.0,1.0,32,0.00,,,0.00,Wunderground v.1.15,2013-06-19 13:03:00,
2013-06-19 06:08:00,73.9,40.5,29.65,ESE,112,0.0,1.0,30,0.00,,,0.00,Wunderground v.1.15,2013-06-19 13:08:00,
2013-06-19 06:13:00,75.0,39.7,29.65,ESE,105,0.0,1.0,28,0.00,,,0.00,Wunderground v.1.15,2013-06-19 13:13:00,
2013-06-19 06:18:00,75.4,41.8,29.65,ESE,108,0.0,1.0,30,0.00,,,0.00,Wunderground v.1.15,2013-06-19 13:18:00,
2013-06-19 06:23:00,74.9,43.0,29.65,SW,218,0.0,0.0,32,0.00,,,0.00,Wunderground v.1.15,2013-06-19 13:23:00,
2013-06-19 06:28:00,75.7,43.7,29.65,SE,136,0.0,1.0,32,0.00,,,0.00,Wunderground v.1.15,2013-06-19 13:28:00,
2013-06-19 06:33:00,76.5,44.4,29.66,SE,137,1.0,1.0,32,0.00,,,0.00,Wunderground v.1.15,2013-06-19 13:33:00,
2013-06-19 06:38:00,77.1,45.8,29.66,SSW,210,0.0,1.0,33,0.00,,,0.00,Wunderground v.1.15,2013-06-19 13:38:00,
2013-06-19 06:43:00,77.9,46.5,29.66,SSW,198,0.0,2.0,33,0.00,,,0.00,Wunderground v.1.15,2013-06-19 13:43:00,
2013-06-19 06:48:00,78.6,46.3,29.66,WSW,254,0.0,2.0,32,0.00,,,0.00,Wunderground v.1.15,2013-06-19 13:48:00,
2013-06-19 06:53:00,79.1,46.7,29.66,SSE,155,0.0,3.0,32,0.00,,,0.00,Wunderground v.1.15,2013-06-19 13:53:00,
2013-06-19 06:58:00,79.1,46.7,29.66,WSW,243,1.0,3.0,32,0.00,,,0.00,Wunderground v.1.15,2013-06-19 13:58:00,
2013-06-19 07:03:00,79.3,46.9,29.66,South,188,1.0,2.0,32,0.00,,,0.00,Wunderground v.1.15,2013-06-19 14:03:00,
2013-06-19 07:08:00,80.0,47.5,29.67,WSW,238,0.0,2.0,32,0.00,,,0.00,Wunderground v.1.15,2013-06-19 14:08:00,
2013-06-19 07:13:00,80.0,46.6,29.67,WSW,243,1.0,3.0,31,0.00,,,0.00,Wunderground v.1.15,2013-06-19 14:13:00,
2013-06-19 07:18:00,80.3,46.9,29.67,WSW,248,0.0,3.0,31,0.00,,,0.00,Wunderground v.1.15,2013-06-19 14:18:00,
2013-06-19 07:24:00,81.5,47.1,29.67,WSW,243,0.0,1.0,30,0.00,,,0.00,Wunderground v.1.15,2013-06-19 14:24:00,
2013-06-19 07:29:00,82.0,46.6,29.67,ESE,111,2.0,3.0,29,0.00,,,0.00,Wunderground v.1.15,2013-06-19 14:29:00,
2013-06-19 07:34:00,82.3,46.9,29.67,SE,143,1.0,2.0,29,0.00,,,0.00,Wunderground v.1.15,2013-06-19 14:34:00,
2013-06-19 07:39:00,82.1,47.6,29.67,South,184,1.0,4.0,30,0.00,,,0.00,Wunderground v.1.15,2013-06-19 14:39:00,
2013-06-19 07:44:00,81.9,48.3,29.68,SE,143,1.0,5.0,31,0.00,,,0.00,Wunderground v.1.15,2013-06-19 14:44:00,
2013-06-19 07:49:00,81.9,47.4,29.68,SW,232,4.0,7.0,30,0.00,,,0.00,Wunderground v.1.15,2013-06-19 14:49:00,
2013-06-19 07:54:00,81.8,49.1,29.68,WSW,243,2.0,4.0,32,0.00,,,0.00,Wunderground v.1.15,2013-06-19 14:54:00,
2013-06-19 07:59:00,82.3,49.5,29.68,West,260,3.0,4.0,32,0.00,,,0.00,Wunderground v.1.15,2013-06-19 14:59:00,
2013-06-19 08:04:00,82.5,49.7,29.68,West,274,3.0,5.0,32,0.00,,,0.00,Wunderground v.1.15,2013-06-19 15:04:00,
2013-06-19 08:09:00,82.4,48.7,29.68,West,266,2.0,5.0,31,0.00,,,0.00,Wunderground v.1.15,2013-06-19 15:09:00,
2013-06-19 08:14:00,82.8,49.9,29.68,WSW,250,0.0,3.0,32,0.00,,,0.00,Wunderground v.1.15,2013-06-19 15:14:00,
2013-06-19 08:19:00,83.3,49.5,29.68,WSW,243,1.0,5.0,31,0.00,,,0.00,Wunderground v.1.15,2013-06-19 15:19:00,
2013-06-19 08:24:00,83.3,48.6,29.69,SE,141,1.0,5.0,30,0.00,,,0.00,Wunderground v.1.15,2013-06-19 15:24:00,
2013-06-19 08:29:00,84.4,50.5,29.69,West,261,4.0,5.0,31,0.00,,,0.00,Wunderground v.1.15,2013-06-19 15:29:00,
2013-06-19 08:34:00,84.1,50.2,29.69,SW,218,2.0,5.0,31,0.00,,,0.00,Wunderground v.1.15,2013-06-19 15:34:00,
2013-06-19 08:39:00,84.3,50.4,29.69,WSW,243,4.0,6.0,31,0.00,,,0.00,Wunderground v.1.15,2013-06-19 15:39:00,
2013-06-19 08:44:00,84.2,49.4,29.69,West,260,3.0,7.0,30,0.00,,,0.00,Wunderground v.1.15,2013-06-19 15:44:00,
2013-06-19 08:49:00,84.8,49.0,29.69,WSW,255,7.0,7.0,29,0.00,,,0.00,Wunderground v.1.15,2013-06-19 15:49:00,
2013-06-19 08:54:00,85.1,47.4,29.69,WSW,248,1.0,6.0,27,0.00,,,0.00,Wunderground v.1.15,2013-06-19 15:54:00,
2013-06-19 08:59:00,85.5,49.6,29.69,SW,236,1.0,6.0,29,0.00,,,0.00,Wunderground v.1.15,2013-06-19 15:59:00,
2013-06-19 09:04:00,86.3,51.2,29.69,SW,236,2.0,4.0,30,0.00,,,0.00,Wunderground v.1.15,2013-06-19 16:04:00,
2013-06-19 09:09:00,86.7,48.7,29.69,WSW,245,1.0,5.0,27,0.00,,,0.00,Wunderground v.1.15,2013-06-19 16:09:00,
2013-06-19 09:14:00,87.4,48.3,29.69,West,269,1.0,3.0,26,0.00,,,0.00,Wunderground v.1.15,2013-06-19 16:14:00,
2013-06-19 09:19:00,88.2,47.9,29.69,SW,236,3.0,5.0,25,0.00,,,0.00,Wunderground v.1.15,2013-06-19 16:19:00,
2013-06-19 09:24:00,88.8,47.4,29.69,West,263,3.0,4.0,24,0.00,,,0.00,Wunderground v.1.15,2013-06-19 16:24:00,
2013-06-19 09:29:00,89.4,47.9,29.69,West,269,2.0,4.0,24,0.00,,,0.00,Wunderground v.1.15,2013-06-19 16:29:00,
2013-06-19 09:34:00,89.4,47.9,29.69,West,274,2.0,4.0,24,0.00,,,0.00,Wunderground v.1.15,2013-06-19 16:34:00,
2013-06-19 09:39:00,89.2,50.8,29.69,WSW,245,4.0,4.0,27,0.00,,,0.00,Wunderground v.1.15,2013-06-19 16:39:00,
2013-06-19 09:44:00,89.3,47.8,29.69,WSW,240,4.0,6.0,24,0.00,,,0.00,Wunderground v.1.15,2013-06-19 16:44:00,
2013-06-19 09:49:00,89.7,49.2,29.69,West,276,2.0,6.0,25,0.00,,,0.00,Wunderground v.1.15,2013-06-19 16:49:00,
2013-06-19 09:54:00,89.7,51.3,29.69,West,259,5.0,7.0,27,0.00,,,0.00,Wunderground v.1.15,2013-06-19 16:54:00,
2013-06-19 09:59:00,89.8,51.4,29.69,WNW,288,4.0,7.0,27,0.00,,,0.00,Wunderground v.1.15,2013-06-19 16:59:00,
2013-06-19 10:04:00,89.5,44.4,29.69,WSW,257,2.0,8.0,21,0.00,,,0.00,Wunderground v.1.15,2013-06-19 17:04:00,
2013-06-19 10:09:00,89.7,42.0,29.69,West,277,5.0,8.0,19,0.00,,,0.00,Wunderground v.1.15,2013-06-19 17:09:00,
2013-06-19 10:14:00,90.0,44.8,29.69,WNW,283,3.0,7.0,21,0.00,,,0.00,Wunderground v.1.15,2013-06-19 17:14:00,
2013-06-19 10:19:00,90.6,44.0,29.69,WSW,257,3.0,7.0,20,0.00,,,0.00,Wunderground v.1.15,2013-06-19 17:19:00,
2013-06-19 10:24:00,90.9,44.3,29.69,WSW,257,5.0,7.0,20,0.00,,,0.00,Wunderground v.1.15,2013-06-19 17:24:00,
2013-06-19 10:29:00,91.2,41.8,29.69,West,270,3.0,7.0,18,0.00,,,0.00,Wunderground v.1.15,2013-06-19 17:29:00,
2013-06-19 10:34:00,91.6,46.1,29.69,WSW,257,2.0,6.0,21,0.00,,,0.00,Wunderground v.1.15,2013-06-19 17:34:00,
2013-06-19 10:39:00,91.8,51.0,29.69,West,270,4.0,6.0,25,0.00,,,0.00,Wunderground v.1.15,2013-06-19 17:39:00,
2013-06-19 10:44:00,92.1,46.6,29.69,West,273,3.0,6.0,21,0.00,,,0.00,Wunderground v.1.15,2013-06-19 17:44:00,
2013-06-19 10:49:00,91.9,45.1,29.69,West,263,6.0,8.0,20,0.00,,,0.00,Wunderground v.1.15,2013-06-19 17:49:00,
2013-06-19 10:54:00,91.6,43.5,29.69,West,259,5.0,7.0,19,0.00,,,0.00,Wunderground v.1.15,2013-06-19 17:54:00,
2013-06-19 10:59:00,91.8,40.8,29.69,West,263,4.0,7.0,17,0.00,,,0.00,Wunderground v.1.15,2013-06-19 17:59:00,
2013-06-19 11:04:00,92.3,41.2,29.69,SW,226,3.0,6.0,17,0.00,,,0.00,Wunderground v.1.15,2013-06-19 18:04:00,
2013-06-19 11:09:00,92.5,46.9,29.69,West,277,6.0,6.0,21,0.00,,,0.00,Wunderground v.1.15,2013-06-19 18:09:00,
2013-06-19 11:14:00,92.3,38.0,29.69,SW,219,0.0,7.0,15,0.00,,,0.00,Wunderground v.1.15,2013-06-19 18:14:00,
2013-06-19 11:19:00,93.0,40.2,29.69,NW,312,0.0,7.0,16,0.00,,,0.00,Wunderground v.1.15,2013-06-19 18:19:00,
2013-06-19 11:24:00,94.2,37.7,29.69,SE,124,0.0,3.0,14,0.00,,,0.00,Wunderground v.1.15,2013-06-19 18:24:00,
2013-06-19 11:29:00,95.8,42.4,29.69,WSW,242,1.0,3.0,16,0.00,,,0.00,Wunderground v.1.15,2013-06-19 18:29:00,
2013-06-19 11:34:00,95.0,38.3,29.69,West,266,0.0,6.0,14,0.00,,,0.00,Wunderground v.1.15,2013-06-19 18:34:00,
2013-06-19 11:39:00,95.6,38.8,29.68,West,278,4.0,6.0,14,0.00,,,0.00,Wunderground v.1.15,2013-06-19 18:39:00,
2013-06-19 11:44:00,94.7,46.0,29.68,West,276,5.0,8.0,19,0.00,,,0.00,Wunderground v.1.15,2013-06-19 18:44:00,
2013-06-19 11:49:00,94.5,41.4,29.68,WNW,283,2.0,8.0,16,0.00,,,0.00,Wunderground v.1.15,2013-06-19 18:49:00,
2013-06-19 11:55:00,95.5,40.5,29.68,WNW,288,3.0,4.0,15,0.00,,,0.00,Wunderground v.1.15,2013-06-19 18:55:00,
2013-06-19 12:00:00,95.0,41.8,29.67,West,270,7.0,8.0,16,0.00,,,0.00,Wunderground v.1.15,2013-06-19 19:00:00,
2013-06-19 12:05:00,94.2,41.1,29.67,WNW,294,3.0,8.0,16,0.00,,,0.00,Wunderground v.1.15,2013-06-19 19:05:00,
2013-06-19 12:10:00,95.0,41.8,29.67,West,281,3.0,8.0,16,0.00,,,0.00,Wunderground v.1.15,2013-06-19 19:10:00,
2013-06-19 12:15:00,94.9,40.0,29.67,West,266,4.0,8.0,15,0.00,,,0.00,Wunderground v.1.15,2013-06-19 19:15:00,
2013-06-19 12:20:00,95.4,38.6,29.67,West,267,2.0,4.0,14,0.00,,,0.00,Wunderground v.1.15,2013-06-19 19:20:00,
2013-06-19 12:25:00,96.2,39.3,29.67,SE,125,2.0,4.0,14,0.00,,,0.00,Wunderground v.1.15,2013-06-19 19:25:00,
2013-06-19 12:30:00,98.5,41.1,29.67,West,263,2.0,2.0,14,0.00,,,0.00,Wunderground v.1.15,2013-06-19 19:30:00,
2013-06-19 12:35:00,97.8,38.6,29.67,West,259,5.0,8.0,13,0.00,,,0.00,Wunderground v.1.15,2013-06-19 19:35:00,
2013-06-19 12:40:00,97.5,43.8,29.67,West,269,2.0,3.0,16,0.00,,,0.00,Wunderground v.1.15,2013-06-19 19:40:00,
2013-06-19 12:45:00,98.1,34.6,29.67,SW,229,2.0,8.0,11,0.00,,,0.00,Wunderground v.1.15,2013-06-19 19:45:00,
2013-06-19 12:50:00,98.4,34.9,29.67,SW,225,1.0,2.0,11,0.00,,,0.00,Wunderground v.1.15,2013-06-19 19:50:00,
2013-06-19 12:55:00,98.4,32.5,29.66,SE,131,1.0,6.0,10,0.00,,,0.00,Wunderground v.1.15,2013-06-19 19:55:00,
2013-06-19 13:00:00,98.9,30.2,29.66,West,267,2.0,3.0,9,0.00,,,0.00,Wunderground v.1.15,2013-06-19 20:00:00,
2013-06-19 13:05:00,99.4,30.6,29.66,ESE,116,2.0,4.0,9,0.00,,,0.00,Wunderground v.1.15,2013-06-19 20:05:00,
2013-06-19 13:10:00,100.8,31.6,29.66,ESE,103,1.0,2.0,9,0.00,,,0.00,Wunderground v.1.15,2013-06-19 20:10:00,
2013-06-19 13:15:00,102.1,35.3,29.66,SW,219,1.0,3.0,10,0.00,,,0.00,Wunderground v.1.15,2013-06-19 20:15:00,
2013-06-19 13:20:00,102.5,35.6,29.66,West,278,2.0,2.0,10,0.00,,,0.00,Wunderground v.1.15,2013-06-19 20:20:00,
2013-06-19 13:25:00,101.2,45.0,29.65,West,273,4.0,5.0,15,0.00,,,0.00,Wunderground v.1.15,2013-06-19 20:25:00,
2013-06-19 13:30:00,99.1,45.0,29.65,West,259,4.0,5.0,16,0.00,,,0.00,Wunderground v.1.15,2013-06-19 20:30:00,
2013-06-19 13:35:00,99.6,27.9,29.65,WSW,248,2.0,6.0,8,0.00,,,0.00,Wunderground v.1.15,2013-06-19 20:35:00,
2013-06-19 13:40:00,99.0,32.9,29.65,West,273,5.0,5.0,10,0.00,,,0.00,Wunderground v.1.15,2013-06-19 20:40:00,
2013-06-19 13:45:00,97.7,31.9,29.65,WSW,243,3.0,11.0,10,0.00,,,0.00,Wunderground v.1.15,2013-06-19 20:45:00,
2013-06-19 13:50:00,97.6,42.2,29.65,West,281,5.0,6.0,15,0.00,,,0.00,Wunderground v.1.15,2013-06-19 20:50:00,
2013-06-19 13:55:00,97.2,49.4,29.65,West,263,8.0,10.0,20,0.00,,,0.00,Wunderground v.1.15,2013-06-19 20:55:00,
2013-06-19 14:00:00,97.3,38.2,29.65,WNW,292,8.0,9.0,13,0.00,,,0.00,Wunderground v.1.15,2013-06-19 21:00:00,
2013-06-19 14:05:00,97.4,40.2,29.64,WNW,284,5.0,9.0,14,0.00,,,0.00,Wunderground v.1.15,2013-06-19 21:05:00,
2013-06-19 14:10:00,97.8,40.5,29.64,West,262,4.0,7.0,14,0.00,,,0.00,Wunderground v.1.15,2013-06-19 21:10:00,
2013-06-19 14:15:00,98.3,39.0,29.64,WNW,290,5.0,7.0,13,0.00,,,0.00,Wunderground v.1.15,2013-06-19 21:15:00,
2013-06-19 14:20:00,98.5,34.9,29.64,West,272,3.0,5.0,11,0.00,,,0.00,Wunderground v.1.15,2013-06-19 21:20:00,
2013-06-19 14:25:00,98.2,36.9,29.64,WNW,283,3.0,10.0,12,0.00,,,0.00,Wunderground v.1.15,2013-06-19 21:25:00,
2013-06-19 14:30:00,98.2,36.9,29.64,WNW,297,4.0,6.0,12,0.00,,,0.00,Wunderground v.1.15,2013-06-19 21:30:00,
2013-06-19 14:36:00,98.8,44.8,29.63,WNW,295,7.0,8.0,16,0.00,,,0.00,Wunderground v.1.15,2013-06-19 21:36:00,
2013-06-19 14:41:00,98.7,47.8,29.63,WNW,290,6.0,8.0,18,0.00,,,0.00,Wunderground v.1.15,2013-06-19 21:41:00,
2013-06-19 14:46:00,98.7,32.7,29.63,WSW,257,3.0,9.0,10,0.00,,,0.00,Wunderground v.1.15,2013-06-19 21:46:00,
2013-06-19 14:50:00,99.1,33.0,29.63,West,276,4.0,5.0,10,0.00,,,0.00,Wunderground v.1.15,2013-06-19 21:50:00,
2013-06-19 14:56:00,100.1,38.4,29.62,West,275,6.0,6.0,12,0.00,,,0.00,Wunderground v.1.15,2013-06-19 21:56:00,
2013-06-19 15:01:00,100.1,31.1,29.62,WNW,285,0.0,5.0,9,0.00,,,0.00,Wunderground v.1.15,2013-06-19 22:01:00,
2013-06-19 15:06:00,99.3,43.5,29.62,WNW,295,5.0,8.0,15,0.00,,,0.00,Wunderground v.1.15,2013-06-19 22:06:00,
2013-06-19 15:11:00,99.0,35.3,29.62,NW,305,3.0,5.0,11,0.00,,,0.00,Wunderground v.1.15,2013-06-19 22:11:00,
2013-06-19 15:16:00,99.1,48.2,29.62,WSW,257,2.0,5.0,18,0.00,,,0.00,Wunderground v.1.15,2013-06-19 22:16:00,
2013-06-19 15:21:00,99.5,48.5,29.61,NW,311,3.0,6.0,18,0.00,,,0.00,Wunderground v.1.15,2013-06-19 22:21:00,
2013-06-19 15:26:00,99.5,37.9,29.61,NW,310,2.0,9.0,12,0.00,,,0.00,Wunderground v.1.15,2013-06-19 22:26:00,
2013-06-19 15:31:00,100.3,44.3,29.61,SW,226,1.0,3.0,15,0.00,,,0.00,Wunderground v.1.15,2013-06-19 22:31:00,
2013-06-19 15:36:00,100.8,42.9,29.61,WNW,291,4.0,7.0,14,0.00,,,0.00,Wunderground v.1.15,2013-06-19 22:36:00,
2013-06-19 15:41:00,100.3,46.0,29.60,NW,304,2.0,5.0,16,0.00,,,0.00,Wunderground v.1.15,2013-06-19 22:41:00,
2013-06-19 15:46:00,100.4,36.4,29.60,WNW,291,1.0,5.0,11,0.00,,,0.00,Wunderground v.1.15,2013-06-19 22:46:00,
2013-06-19 15:51:00,101.2,39.2,29.60,WSW,252,6.0,6.0,12,0.00,,,0.00,Wunderground v.1.15,2013-06-19 22:51:00,
2013-06-19 15:56:00,100.2,50.5,29.60,WNW,285,5.0,10.0,19,0.00,,,0.00,Wunderground v.1.15,2013-06-19 22:56:00,
2013-06-19 16:01:00,100.6,31.5,29.60,West,279,1.0,6.0,9,0.00,,,0.00,Wunderground v.1.15,2013-06-19 23:01:00,
2013-06-19 16:06:00,100.9,44.8,29.60,West,271,4.0,7.0,15,0.00,,,0.00,Wunderground v.1.15,2013-06-19 23:06:00,
2013-06-19 16:11:00,101.0,43.0,29.59,SW,228,3.0,5.0,14,0.00,,,0.00,Wunderground v.1.15,2013-06-19 23:11:00,
2013-06-19 16:16:00,101.3,34.7,29.59,West,269,5.0,7.0,10,0.00,,,0.00,Wunderground v.1.15,2013-06-19 23:16:00,
2013-06-19 16:21:00,101.4,39.4,29.59,West,277,3.0,4.0,12,0.00,,,0.00,Wunderground v.1.15,2013-06-19 23:21:00,
2013-06-19 16:26:00,101.7,39.6,29.59,West,269,3.0,8.0,12,0.00,,,0.00,Wunderground v.1.15,2013-06-19 23:26:00,
2013-06-19 16:31:00,101.4,32.1,29.59,West,275,3.0,4.0,9,0.00,,,0.00,Wunderground v.1.15,2013-06-19 23:31:00,
2013-06-19 16:36:00,101.8,37.4,29.59,West,262,3.0,9.0,11,0.00,,,0.00,Wunderground v.1.15,2013-06-19 23:36:00,
2013-06-19 16:41:00,102.1,42.0,29.58,West,277,4.0,4.0,13,0.00,,,0.00,Wunderground v.1.15,2013-06-19 23:41:00,
2013-06-19 16:46:00,101.1,46.6,29.58,West,278,2.0,7.0,16,0.00,,,0.00,Wunderground v.1.15,2013-06-19 23:46:00,
2013-06-19 16:51:00,100.8,42.9,29.58,West,264,3.0,5.0,14,0.00,,,0.00,Wunderground v.1.15,2013-06-19 23:51:00,
2013-06-19 16:56:00,101.2,39.2,29.58,WNW,288,2.0,6.0,12,0.00,,,0.00,Wunderground v.1.15,2013-06-19 23:56:00,
2013-06-19 17:01:00,100.6,44.5,29.58,West,270,2.0,4.0,15,0.00,,,0.00,Wunderground v.1.15,2013-06-20 00:01:00,
2013-06-19 17:06:00,100.9,46.5,29.58,WNW,290,2.0,5.0,16,0.00,,,0.00,Wunderground v.1.15,2013-06-20 00:06:00,
2013-06-19 17:11:00,101.0,49.7,29.58,NW,310,3.0,4.0,18,0.00,,,0.00,Wunderground v.1.15,2013-06-20 00:11:00,
2013-06-19 17:16:00,101.0,46.6,29.58,NW,322,3.0,4.0,16,0.00,,,0.00,Wunderground v.1.15,2013-06-20 00:16:00,
2013-06-19 17:21:00,101.1,48.3,29.57,West,272,2.0,4.0,17,0.00,,,0.00,Wunderground v.1.15,2013-06-20 00:21:00,
2013-06-19 17:26:00,101.7,43.6,29.57,West,277,1.0,4.0,14,0.00,,,0.00,Wunderground v.1.15,2013-06-20 00:26:00,
2013-06-19 17:31:00,101.5,47.0,29.57,WNW,283,1.0,3.0,16,0.00,,,0.00,Wunderground v.1.15,2013-06-20 00:31:00,
2013-06-19 17:36:00,101.4,41.4,29.57,WNW,288,2.0,4.0,13,0.00,,,0.00,Wunderground v.1.15,2013-06-20 00:36:00,
2013-06-19 17:41:00,101.8,47.2,29.57,WNW,297,2.0,3.0,16,0.00,,,0.00,Wunderground v.1.15,2013-06-20 00:41:00,
2013-06-19 17:46:00,102.1,43.9,29.57,West,270,1.0,3.0,14,0.00,,,0.00,Wunderground v.1.15,2013-06-20 00:46:00,
2013-06-19 17:51:00,102.2,37.8,29.57,West,267,1.0,3.0,11,0.00,,,0.00,Wunderground v.1.15,2013-06-20 00:51:00,
2013-06-19 17:56:00,102.0,49.0,29.57,WSW,250,2.0,4.0,17,0.00,,,0.00,Wunderground v.1.15,2013-06-20 00:56:00,
2013-06-19 18:01:00,101.5,43.4,29.57,West,277,1.0,3.0,14,0.00,,,0.00,Wunderground v.1.15,2013-06-20 01:01:00,
2013-06-19 18:06:00,101.5,45.2,29.57,WSW,252,2.0,4.0,15,0.00,,,0.00,Wunderground v.1.15,2013-06-20 01:06:00,
2013-06-19 18:11:00,100.9,46.5,29.57,WNW,290,3.0,3.0,16,0.00,,,0.00,Wunderground v.1.15,2013-06-20 01:11:00,
2013-06-19 18:16:00,100.6,46.2,29.57,WNW,294,3.0,3.0,16,0.00,,,0.00,Wunderground v.1.15,2013-06-20 01:16:00,
2013-06-19 18:21:00,101.0,46.6,29.57,WNW,285,2.0,2.0,16,0.00,,,0.00,Wunderground v.1.15,2013-06-20 01:21:00,
2013-06-19 18:26:00,101.0,48.2,29.57,West,274,1.0,3.0,17,0.00,,,0.00,Wunderground v.1.15,2013-06-20 01:26:00,
2013-06-19 18:31:00,101.1,43.1,29.57,West,265,2.0,3.0,14,0.00,,,0.00,Wunderground v.1.15,2013-06-20 01:31:00,
2013-06-19 18:36:00,101.3,43.3,29.57,West,271,2.0,3.0,14,0.00,,,0.00,Wunderground v.1.15,2013-06-20 01:36:00,
2013-06-19 18:41:00,101.0,41.1,29.57,West,262,3.0,4.0,13,0.00,,,0.00,Wunderground v.1.15,2013-06-20 01:41:00,
2013-06-19 18:46:00,100.5,36.5,29.57,West,267,3.0,4.0,11,0.00,,,0.00,Wunderground v.1.15,2013-06-20 01:46:00,
2013-06-19 18:51:00,100.5,34.1,29.57,West,267,2.0,3.0,10,0.00,,,0.00,Wunderground v.1.15,2013-06-20 01:51:00,
2013-06-19 18:56:00,100.6,34.1,29.57,West,278,1.0,3.0,10,0.00,,,0.00,Wunderground v.1.15,2013-06-20 01:56:00,
2013-06-19 19:01:00,101.3,32.0,29.57,SW,221,0.0,3.0,9,0.00,,,0.00,Wunderground v.1.15,2013-06-20 02:01:00,
2013-06-19 19:06:00,101.7,32.3,29.57,SW,232,0.0,3.0,9,0.00,,,0.00,Wunderground v.1.15,2013-06-20 02:06:00,
2013-06-19 19:11:00,101.6,29.3,29.57,SW,217,2.0,4.0,8,0.00,,,0.00,Wunderground v.1.15,2013-06-20 02:11:00,
2013-06-19 19:16:00,101.2,22.1,29.57,SW,228,1.0,7.0,6,0.00,,,0.00,Wunderground v.1.15,2013-06-20 02:16:00,
2013-06-19 19:21:00,101.0,22.0,29.57,SW,231,0.0,1.0,6,0.00,,,0.00,Wunderground v.1.15,2013-06-20 02:21:00,
2013-06-19 19:26:00,100.7,21.8,29.57,WSW,243,0.0,4.0,6,0.00,,,0.00,Wunderground v.1.15,2013-06-20 02:26:00,
2013-06-19 19:31:00,100.2,21.4,29.57,SSW,211,1.0,4.0,6,0.00,,,0.00,Wunderground v.1.15,2013-06-20 02:31:00,
2013-06-19 19:36:00,99.3,20.8,29.57,SSE,159,2.0,4.0,6,0.00,,,0.00,Wunderground v.1.15,2013-06-20 02:36:00,
2013-06-19 19:41:00,98.4,23.8,29.57,SW,224,1.0,1.0,7,0.00,,,0.00,Wunderground v.1.15,2013-06-20 02:41:00,
2013-06-19 19:46:00,97.6,23.2,29.57,SE,131,2.0,4.0,7,0.00,,,0.00,Wunderground v.1.15,2013-06-20 02:46:00,
2013-06-19 19:51:00,96.6,22.5,29.57,SE,127,3.0,4.0,7,0.00,,,0.00,Wunderground v.1.15,2013-06-20 02:51:00,
2013-06-19 19:56:00,95.7,21.8,29.57,SSE,165,0.0,4.0,7,0.00,,,0.00,Wunderground v.1.15,2013-06-20 02:56:00,
2013-06-19 20:01:00,94.9,24.4,29.57,SSW,201,0.0,2.0,8,0.00,,,0.00,Wunderground v.1.15,2013-06-20 03:01:00,
2013-06-19 20:06:00,94.1,26.6,29.57,West,269,1.0,2.0,9,0.00,,,0.00,Wunderground v.1.15,2013-06-20 03:06:00,
2013-06-19 20:11:00,93.5,26.2,29.57,SW,235,0.0,1.0,9,0.00,,,0.00,Wunderground v.1.15,2013-06-20 03:11:00,
2013-06-19 20:16:00,93.0,25.8,29.57,South,173,0.0,1.0,9,0.00,,,0.00,Wunderground v.1.15,2013-06-20 03:16:00,
2013-06-19 20:21:00,92.5,25.4,29.57,SSW,198,1.0,1.0,9,0.00,,,0.00,Wunderground v.1.15,2013-06-20 03:21:00,
2013-06-19 20:26:00,92.2,25.2,29.57,West,276,0.0,1.0,9,0.00,,,0.00,Wunderground v.1.15,2013-06-20 03:26:00,
2013-06-19 20:31:00,91.9,22.2,29.57,WSW,255,0.0,0.0,8,0.00,,,0.00,Wunderground v.1.15,2013-06-20 03:31:00,
2013-06-19 20:36:00,91.6,18.8,29.57,SW,229,0.0,1.0,7,0.00,,,0.00,Wunderground v.1.15,2013-06-20 03:36:00,
2013-06-19 20:41:00,91.3,18.6,29.58,West,263,0.0,0.0,7,0.00,,,0.00,Wunderground v.1.15,2013-06-20 03:41:00,
2013-06-19 20:46:00,91.2,15.0,29.58,WSW,246,0.0,1.0,6,0.00,,,0.00,Wunderground v.1.15,2013-06-20 03:46:00,
2013-06-19 20:51:00,91.1,14.9,29.58,WSW,252,0.0,1.0,6,0.00,,,0.00,Wunderground v.1.15,2013-06-20 03:51:00,
2013-06-19 20:56:00,90.9,14.7,29.58,WSW,238,0.0,1.0,6,0.00,,,0.00,Wunderground v.1.15,2013-06-20 03:56:00,
2013-06-19 21:01:00,90.8,14.7,29.58,WSW,240,0.0,1.0,6,0.00,,,0.00,Wunderground v.1.15,2013-06-20 04:01:00,
2013-06-19 21:06:00,90.8,14.7,29.58,South,174,0.0,2.0,6,0.00,,,0.00,Wunderground v.1.15,2013-06-20 04:06:00,
2013-06-19 21:11:00,91.4,15.1,29.58,WSW,255,0.0,2.0,6,0.00,,,0.00,Wunderground v.1.15,2013-06-20 04:11:00,
2013-06-19 21:16:00,91.6,18.8,29.59,WSW,250,0.0,2.0,7,0.00,,,0.00,Wunderground v.1.15,2013-06-20 04:16:00,
2013-06-19 21:21:00,91.4,21.8,29.59,SW,228,0.0,2.0,8,0.00,,,0.00,Wunderground v.1.15,2013-06-20 04:21:00,
2013-06-19 21:26:00,91.6,22.0,29.59,WSW,240,0.0,4.0,8,0.00,,,0.00,Wunderground v.1.15,2013-06-20 04:26:00,
2013-06-19 21:31:00,91.4,24.6,29.59,WNW,293,0.0,1.0,9,0.00,,,0.00,Wunderground v.1.15,2013-06-20 04:31:00,
2013-06-19 21:36:00,90.8,29.0,29.59,NW,316,0.0,1.0,11,0.00,,,0.00,Wunderground v.1.15,2013-06-20 04:36:00,
2013-06-19 21:41:00,90.1,28.5,29.60,SSE,156,0.0,1.0,11,0.00,,,0.00,Wunderground v.1.15,2013-06-20 04:41:00,
2013-06-19 21:46:00,89.5,28.0,29.60,ESE,103,0.0,1.0,11,0.00,,,0.00,Wunderground v.1.15,2013-06-20 04:46:00,
2013-06-19 21:51:00,89.2,27.8,29.60,WSW,245,0.0,2.0,11,0.00,,,0.00,Wunderground v.1.15,2013-06-20 04:51:00,
2013-06-19 21:56:00,89.2,27.8,29.60,SE,129,0.0,2.0,11,0.00,,,0.00,Wunderground v.1.15,2013-06-20 04:56:00,
2013-06-19 22:01:00,89.1,27.7,29.60,SW,229,1.0,1.0,11,0.00,,,0.00,Wunderground v.1.15,2013-06-20 05:01:00,
2013-06-19 22:06:00,89.1,25.4,29.60,SSE,154,0.0,3.0,10,0.00,,,0.00,Wunderground v.1.15,2013-06-20 05:06:00,
2013-06-19 22:11:00,89.2,25.5,29.60,SSE,148,1.0,1.0,10,0.00,,,0.00,Wunderground v.1.15,2013-06-20 05:11:00,
2013-06-19 22:16:00,89.1,25.4,29.60,NW,323,0.0,1.0,10,0.00,,,0.00,Wunderground v.1.15,2013-06-20 05:16:00,
2013-06-19 22:21:00,88.9,25.3,29.60,ESE,103,1.0,1.0,10,0.00,,,0.00,Wunderground v.1.15,2013-06-20 05:21:00,
2013-06-19 22:26:00,89.0,27.7,29.60,WSW,248,0.0,2.0,11,0.00,,,0.00,Wunderground v.1.15,2013-06-20 05:26:00,
2013-06-19 22:31:00,89.1,29.9,29.60,South,179,0.0,2.0,12,0.00,,,0.00,Wunderground v.1.15,2013-06-20 05:31:00,
2013-06-19 22:36:00,89.3,32.0,29.60,SW,226,0.0,2.0,13,0.00,,,0.00,Wunderground v.1.15,2013-06-20 05:36:00,
2013-06-19 22:41:00,89.4,33.9,29.60,West,277,0.0,2.0,14,0.00,,,0.00,Wunderground v.1.15,2013-06-20 05:41:00,
2013-06-19 22:46:00,89.4,33.9,29.60,SW,225,1.0,2.0,14,0.00,,,0.00,Wunderground v.1.15,2013-06-20 05:46:00,
2013-06-19 22:51:00,89.2,33.8,29.60,NW,307,1.0,5.0,14,0.00,,,0.00,Wunderground v.1.15,2013-06-20 05:51:00,
2013-06-19 22:56:00,89.3,35.6,29.60,West,270,0.0,6.0,15,0.00,,,0.00,Wunderground v.1.15,2013-06-20 05:56:00,
2013-06-19 23:01:00,89.2,35.5,29.60,West,264,0.0,1.0,15,0.00,,,0.00,Wunderground v.1.15,2013-06-20 06:01:00,
2013-06-19 23:06:00,88.9,36.9,29.60,SSE,160,1.0,2.0,16,0.00,,,0.00,Wunderground v.1.15,2013-06-20 06:06:00,
2013-06-19 23:11:00,88.8,38.4,29.60,ESE,120,1.0,2.0,17,0.00,,,0.00,Wunderground v.1.15,2013-06-20 06:11:00,
2013-06-19 23:16:00,88.7,38.3,29.60,SE,129,1.0,5.0,17,0.00,,,0.00,Wunderground v.1.15,2013-06-20 06:16:00,
2013-06-19 23:21:00,88.6,36.7,29.60,SE,134,2.0,2.0,16,0.00,,,0.00,Wunderground v.1.15,2013-06-20 06:21:00,
2013-06-19 23:26:00,88.7,36.7,29.60,North,353,0.0,2.0,16,0.00,,,0.00,Wunderground v.1.15,2013-06-20 06:26:00,
2013-06-19 23:31:00,88.4,36.5,29.60,WNW,291,0.0,1.0,16,0.00,,,0.00,Wunderground v.1.15,2013-06-20 06:31:00,
2013-06-19 23:36:00,88.2,36.3,29.60,NNW,342,0.0,3.0,16,0.00,,,0.00,Wunderground v.1.15,2013-06-20 06:36:00,
2013-06-19 23:41:00,88.1,36.3,29.60,West,271,3.0,7.0,16,0.00,,,0.00,Wunderground v.1.15,2013-06-20 06:41:00,
2013-06-19 23:46:00,88.0,37.7,29.60,WNW,294,1.0,7.0,17,0.00,,,0.00,Wunderground v.1.15,2013-06-20 06:46:00,
2013-06-19 23:51:00,87.8,37.6,29.60,WNW,300,1.0,3.0,17,0.00,,,0.00,Wunderground v.1.15,2013-06-20 06:51:00,
2013-06-19 23:56:00,87.6,37.4,29.61,NE,53,0.0,3.0,17,0.00,,,0.00,Wunderground v.1.15,2013-06-20 06:56:00,